TimeMDT,TemperatureF,Dew PointF,Humidity,Sea Level PressureIn,VisibilityMPH,Wind Direction,Wind SpeedMPH,Gust SpeedMPH,PrecipitationIn,Events,Conditions,WindDirDegrees,DateUTC
12:15 AM,39.2,32.0,75,30.18,10.0,Calm,Calm,-,N/A,,Clear,0,2013-10-12 06:15:00
12:35 AM,39.6,32.0,74,30.18,10.0,WNW,3.5,-,N/A,,Clear,300,2013-10-12 06:35:00
12:55 AM,39.4,32.0,75,30.18,10.0,SW,3.5,-,N/A,,Clear,230,2013-10-12 06:55:00
1:15 AM,38.8,32.0,76,30.18,10.0,Calm,Calm,-,N/A,,Clear,0,2013-10-12 07:15:00
1:35 AM,39.0,32.0,76,30.18,10.0,NNE,3.5,-,N/A,,Clear,30,2013-10-12 07:35:00
1:55 AM,39.0,32.0,76,30.18,10.0,Calm,Calm,-,N/A,,Clear,0,2013-10-12 07:55:00
2:15 AM,38.8,32.0,76,30.18,10.0,Calm,Calm,-,N/A,,Clear,0,2013-10-12 08:15:00
2:35 AM,38.5,31.8,77,30.19,10.0,East,3.5,-,N/A,,Clear,100,2013-10-12 08:35:00
2:55 AM,37.6,32.0,80,30.19,10.0,ESE,3.5,-,N/A,,Clear,120,2013-10-12 08:55:00
3:15 AM,36.1,32.0,85,30.18,10.0,North,3.5,-,N/A,,Clear,10,2013-10-12 09:15:00
3:35 AM,36.7,32.0,83,30.18,10.0,North,5.8,-,N/A,,Clear,360,2013-10-12 09:35:00
3:55 AM,36.9,32.0,83,30.18,10.0,NNW,3.5,-,N/A,,Clear,330,2013-10-12 09:55:00
4:15 AM,36.9,32.0,83,30.18,10.0,Calm,Calm,-,N/A,,Clear,0,2013-10-12 10:15:00
4:35 AM,37.0,32.0,82,30.18,10.0,West,5.8,-,N/A,,Clear,280,2013-10-12 10:35:00
4:55 AM,37.4,31.6,80,30.19,10.0,Calm,Calm,-,N/A,,Clear,0,2013-10-12 10:55:00
5:35 AM,37.9,30.9,76,30.20,10.0,Calm,Calm,-,N/A,,Clear,0,2013-10-12 11:35:00
5:55 AM,37.6,31.1,77,30.21,10.0,Calm,Calm,-,N/A,,Clear,0,2013-10-12 11:55:00
6:15 AM,38.3,30.2,73,30.21,10.0,Calm,Calm,-,N/A,,Clear,0,2013-10-12 12:15:00
6:35 AM,37.8,31.1,77,30.22,10.0,Calm,Calm,-,N/A,,Clear,0,2013-10-12 12:35:00
6:55 AM,37.6,30.6,76,30.22,10.0,Calm,Calm,-,N/A,,Clear,0,2013-10-12 12:55:00
7:15 AM,37.4,30.7,77,30.22,10.0,Calm,Calm,-,N/A,,Clear,0,2013-10-12 13:15:00
7:35 AM,37.8,30.7,76,30.23,10.0,Calm,Calm,-,N/A,,Clear,0,2013-10-12 13:35:00
7:55 AM,38.3,31.1,75,30.23,10.0,Calm,Calm,-,N/A,,Clear,0,2013-10-12 13:55:00
8:15 AM,37.2,30.9,78,30.25,10.0,Calm,Calm,-,N/A,,Clear,0,2013-10-12 14:15:00
8:35 AM,36.5,31.5,82,30.25,10.0,Calm,Calm,-,N/A,,Clear,0,2013-10-12 14:35:00
8:55 AM,37.8,32.0,80,30.26,10.0,Calm,Calm,-,N/A,,Clear,0,2013-10-12 14:55:00
9:15 AM,39.7,31.5,72,30.27,10.0,Calm,Calm,-,N/A,,Clear,0,2013-10-12 15:15:00
9:35 AM,41.4,31.6,68,30.27,10.0,Calm,Calm,-,N/A,,Clear,0,2013-10-12 15:35:00
9:55 AM,44.1,32.0,63,30.27,10.0,Calm,Calm,-,N/A,,Clear,0,2013-10-12 15:55:00
10:15 AM,45.9,33.8,63,30.27,10.0,SE,3.5,-,N/A,,Clear,130,2013-10-12 16:15:00
10:35 AM,46.0,34.0,63,30.27,10.0,ESE,4.6,-,N/A,,Clear,110,2013-10-12 16:35:00
10:55 AM,46.9,34.5,62,30.27,10.0,SE,5.8,-,N/A,,Clear,130,2013-10-12 16:55:00
11:15 AM,48.6,34.0,57,30.27,10.0,SE,8.1,-,N/A,,Clear,130,2013-10-12 17:15:00
11:35 AM,50.2,32.4,50,30.27,10.0,SE,11.5,-,N/A,,Clear,140,2013-10-12 17:35:00
11:55 AM,51.3,30.4,45,30.26,10.0,SSE,11.5,-,N/A,,Clear,150,2013-10-12 17:55:00
12:15 PM,52.5,31.3,44,30.25,10.0,SSE,8.1,19.6,N/A,,Clear,160,2013-10-12 18:15:00
12:35 PM,52.7,28.8,40,30.25,10.0,SE,12.7,19.6,N/A,,Clear,130,2013-10-12 18:35:00
12:55 PM,53.4,29.1,39,30.24,10.0,SE,11.5,17.3,N/A,,Clear,140,2013-10-12 18:55:00
1:15 PM,54.0,30.6,41,30.23,10.0,SSE,11.5,17.3,N/A,,Clear,160,2013-10-12 19:15:00
1:35 PM,54.5,27.5,35,30.23,10.0,South,12.7,18.4,N/A,,Clear,170,2013-10-12 19:35:00
1:55 PM,55.6,26.4,33,30.22,10.0,South,16.1,20.7,N/A,,Clear,180,2013-10-12 19:55:00
2:15 PM,55.6,26.8,33,30.21,10.0,South,10.4,18.4,N/A,,Clear,190,2013-10-12 20:15:00
2:35 PM,56.3,26.2,32,30.20,10.0,SE,12.7,16.1,N/A,,Clear,140,2013-10-12 20:35:00
2:55 PM,57.0,26.8,31,30.21,10.0,SSE,11.5,19.6,N/A,,Clear,160,2013-10-12 20:55:00
3:15 PM,57.4,25.9,30,30.20,10.0,South,15.0,20.7,N/A,,Clear,190,2013-10-12 21:15:00
3:35 PM,57.7,26.2,30,30.20,10.0,South,15.0,19.6,N/A,,Clear,190,2013-10-12 21:35:00
3:55 PM,57.6,27.3,31,30.20,10.0,South,12.7,20.7,N/A,,Clear,170,2013-10-12 21:55:00
4:15 PM,57.9,27.3,31,30.19,10.0,South,9.2,17.3,N/A,,Clear,170,2013-10-12 22:15:00
4:35 PM,58.1,27.9,32,30.19,10.0,SSE,13.8,19.6,N/A,,Clear,160,2013-10-12 22:35:00
4:55 PM,57.7,28.6,33,30.19,10.0,SSE,13.8,18.4,N/A,,Clear,160,2013-10-12 22:55:00
5:15 PM,58.1,28.8,33,30.19,10.0,South,9.2,-,N/A,,Clear,180,2013-10-12 23:15:00
5:35 PM,57.6,29.7,35,30.20,10.0,South,12.7,17.3,N/A,,Clear,170,2013-10-12 23:35:00
5:55 PM,57.2,28.9,34,30.20,10.0,South,9.2,16.1,N/A,,Clear,170,2013-10-12 23:55:00
6:15 PM,56.5,29.1,35,30.20,10.0,South,5.8,-,N/A,,Clear,170,2013-10-13 00:15:00
6:35 PM,55.8,27.9,34,30.20,10.0,South,5.8,-,N/A,,Clear,190,2013-10-13 00:35:00
6:55 PM,54.7,27.9,36,30.21,10.0,SSW,5.8,-,N/A,,Clear,200,2013-10-13 00:55:00
7:15 PM,54.5,27.5,35,30.21,10.0,SW,3.5,-,N/A,,Clear,220,2013-10-13 01:15:00
7:35 PM,53.2,28.6,39,30.21,10.0,South,5.8,-,N/A,,Clear,190,2013-10-13 01:35:00
7:55 PM,52.9,28.8,40,30.22,10.0,SSW,6.9,-,N/A,,Clear,210,2013-10-13 01:55:00
8:15 PM,52.9,28.8,40,30.23,10.0,South,8.1,-,N/A,,Clear,180,2013-10-13 02:15:00
8:35 PM,51.6,32.2,47,30.24,10.0,SSE,9.2,-,N/A,,Clear,160,2013-10-13 02:35:00
8:55 PM,51.1,33.3,51,30.25,10.0,South,10.4,-,N/A,,Clear,170,2013-10-13 02:55:00
9:15 PM,50.4,33.8,53,30.26,10.0,South,10.4,-,N/A,,Clear,190,2013-10-13 03:15:00
9:35 PM,50.5,34.0,53,30.27,10.0,South,11.5,-,N/A,,Clear,190,2013-10-13 03:35:00
9:55 PM,50.4,34.0,53,30.27,10.0,SSW,11.5,17.3,N/A,,Clear,200,2013-10-13 03:55:00
10:15 PM,49.5,34.2,56,30.28,10.0,SSW,10.4,17.3,N/A,,Clear,200,2013-10-13 04:15:00
10:35 PM,49.5,34.2,56,30.28,10.0,SSW,11.5,-,N/A,,Clear,200,2013-10-13 04:35:00
10:55 PM,49.5,34.2,56,30.29,10.0,SSW,10.4,-,N/A,,Scattered Clouds,210,2013-10-13 04:55:00
11:15 PM,49.1,34.5,57,30.28,10.0,SW,9.2,-,N/A,,Mostly Cloudy,220,2013-10-13 05:15:00
11:35 PM,49.1,34.7,58,30.28,10.0,SW,9.2,-,N/A,,Mostly Cloudy,220,2013-10-13 05:35:00
11:55 PM,49.1,34.5,57,30.28,10.0,SW,9.2,-,N/A,,Clear,230,2013-10-13 05:55:00